WESTFORD NEEDLES, 628

Orbit data source: Space-Track

WESTFORD NEEDLES, 628 is space debris in LEO originally from a launch on Thu, 09 May 1963 UTC launched from the Air Force Western Test Range (AFWTR). Debris objects in space refer to the collection of defunct objects orbiting the Earth. Examples of debris include non-operational satellites, rocket bodies, and fragments generated from explosions, collisions, or faulty payload assembly.

Loading next visibility...
WESTFORD NEEDLES details
Identifier
628, 1963-014F
Orbit
LEO
Last TLE update22 hours ago
Origin
Flag of USUSAF SSD (US)
ManufacturerUnknown
MissionSpacecraft
Bus & MotorUnknown
Mass~10 kg wet, ~10 kg dry
Launch date (UTC)
1963-05-09 (62 years ago)
Launch vehicleUnknown
Launch site
Air Force Western Test Range (AFWTR)
Object type
Payload
Rocket body
Debris
Shape & HBRBox, 1.5 m
Radar Cross Section1.575 m², Medium (>0.1 m² and < 1m²)

Expand to show TLE details & history

TLE from 22 hours ago
0 WESTFORD NEEDLES
1 00628U 63014F   25014.63722927  .00000003  00000-0  00000-0 0  9993
2 00628  87.3097 252.4348 0021061 254.9484 104.9038  8.63370910944207
Epoch: 2025-01-14T15:17Z
Definitive object data (Epoch: 2025-01-14T15:17:36.608Z)
Latitude-0.00005°
Longitude-91.3088°
Altitude3,666.517 km
Speed6.298 km/s
True Right ascension16h 49m 44s
True Declination0° 00' 00"
Sunlit
Object was in daylight at TLE epoch
Visualization TLE readout
Latitude13.78286°
Longitude-90.73997°
Altitude3,670.824 km
Speed6.296 km/s
Apparent Right ascension18h 40m 31s
Apparent Declination-14° 15' 03"
Sunlit
Object is in daylight
Visualization observer readout
Local Sidereal Time14:19:17
Azimuth116.994° SE
Elevation8.775°
Doppler factor1
Orbital elements
Apogee altitude3,677.816 km
Perigee altitude3,635.547 km
Semi-major axis10,034.819 km
Eccentricity0.0021061
Inclination87.3097°
RAAN252.4348°
Arg. of periapsis254.9484°
True anomaly105.13686°
Mean anomaly104.9038°
Eccentric anomaly105.02035°
Mean motion2.15913 °/min
BSTARUnknown
Orbital period166.73 mins
Loading maneuver chart data...

WESTFORD NEEDLES Visibility forecast

Observer location: undefined°, undefined

Span
Click to sort rows by Start time (UTC) header in descending order
Start Az.
Max El. time (UTC)
Max El. Az.
Max El.
End time (UTC)
End Az.
28 mins2025-01-15 13:39:43.531Z114.907° SE2025-01-15 13:53:43.531Z64.86° ENE26.002°2025-01-15 14:07:43.531Z14.305° NNE
37 mins2025-01-15 16:19:43.531Z184.462° SSW2025-01-15 16:37:43.531Z271.795° WNW44.501°2025-01-15 16:56:43.531Z1.033° NNE
23 mins2025-01-15 19:18:43.531Z266.381° W2025-01-15 19:29:43.531Z304.847° NW17.942°2025-01-15 19:41:43.531Z346.243° N
31 mins2025-01-16 01:27:43.531Z10.374° NNE2025-01-16 01:42:43.531Z68.771° E28.439°2025-01-16 01:58:43.531Z128.347° SE
36 mins2025-01-16 04:13:43.531Z355.191° N2025-01-16 04:31:43.531Z270.927° WNW43.586°2025-01-16 04:49:43.531Z197.095° SSW
17 mins2025-01-16 07:04:43.531Z334.395° NNW2025-01-16 07:12:43.531Z307.051° NW15.715°2025-01-16 07:21:43.531Z276.665° WNW
|